El Segundo, CA

5:32 PM PST on December 10, 2016 (GMT -0800)
Los Angeles International

Weather History for KLAX - July, 2013

Change the Weather History Date:

Monday, July 29, 2013

  Actual Average Record
Temperature  
Mean Temperature 68 °F 69 °F  
Max Temperature 72 °F 74 °F 89 °F (1995)
Min Temperature 63 °F 64 °F 59 °F (1986)
Degree Days  
Heating Degree Days 0 0  
Month to date heating degree days 0 0  
Since 1 June heating degree days 0 25  
Since 1 July heating degree days 0 0  
Cooling Degree Days 3 4  
Month to date cooling degree days 128 108  
Year to date cooling degree days 302 190  
Since 1 June cooling degree days 221 150  
Growing Degree Days 18 (Base 50)    
Moisture  
Dew Point 57 °F    
Average Humidity 71    
Maximum Humidity 84    
Minimum Humidity 57    
Precipitation  
Precipitation 0.00 in 0.00 in 0.09 in (1996)
Month to date precipitation 0.03 0.03  
Year to date precipitation 2.64 8.84  
Since 1 July precipitation 0.03  
Sea Level Pressure  
Sea Level Pressure 29.98 in    
Wind  
Wind Speed 8 mph (West)    
Max Wind Speed 17 mph    
Max Gust Speed 22 mph    
Visibility 10 miles    
Events Fog    
T = Trace of Precipitation, MM = Missing Value Source: NWS Daily Summary

Daily Weather History Graph

Daily Weather History Graph

Search for Another Location

Airport or City:

Trip Planner

Search our weather history database for the weather conditions in past years. The results will help you decide how hot, cold, wet, or windy it might be!

Date:

Astronomy

Jul. 29, 2013 Rise Set
Actual Time 6:03 AM PDT 7:56 PM PDT
Civil Twilight 5:35 AM PDT 8:23 PM PDT
Nautical Twilight 5:02 AM PDT 8:57 PM PDT
Astronomical Twilight 4:26 AM PDT 9:32 PM PDT
Moon No Moon Rise 1:25 PM PDT (7/29)
Length of Visible Light 14h 48m
Length of Day
13h 53m
Waning Gibbous, 50% of the Moon is Illuminated
Jul 29
Waning Gibbous
Aug 6
New
Aug 14
First Quarter
Aug 20
Full
Aug 28
Last Quarter

Hourly Weather History & Observations

Time (PDT) Temp. Dew Point Humidity Pressure Visibility Wind Dir Wind Speed Gust Speed Precip Events Conditions
12:53 AM 64.0 °F 57.9 °F 80% 29.93 in 10.0 mi Calm Calm - N/A   Overcast
1:53 AM 64.9 °F 57.9 °F 78% 29.92 in 10.0 mi Calm Calm - N/A   Overcast
2:53 AM 64.0 °F 57.9 °F 80% 29.93 in 10.0 mi NW 3.5 mph - N/A   Overcast
3:53 AM 64.0 °F 57.9 °F 80% 29.92 in 10.0 mi WNW 4.6 mph - N/A   Overcast
3:59 AM 64.4 °F 57.2 °F 77% 29.93 in 10.0 mi West 3.5 mph - N/A   Overcast
4:53 AM 64.0 °F 57.9 °F 80% 29.93 in 10.0 mi WSW 3.5 mph - N/A   Mostly Cloudy
5:53 AM 64.0 °F 57.9 °F 80% 29.95 in 9.0 mi West 4.6 mph - N/A Fog Patches of Fog
6:53 AM 64.9 °F 57.0 °F 75% 29.96 in 10.0 mi WSW 6.9 mph - N/A Fog Patches of Fog
7:53 AM 64.9 °F 57.0 °F 75% 29.97 in 10.0 mi WNW 3.5 mph - N/A Fog Patches of Fog
8:53 AM 66.0 °F 57.0 °F 73% 29.99 in 10.0 mi West 4.6 mph - N/A Fog Patches of Fog
9:03 AM 66.2 °F 57.2 °F 73% 29.99 in 9.0 mi SW 8.1 mph - N/A   Scattered Clouds
9:53 AM 68.0 °F 55.9 °F 65% 30.00 in 9.0 mi SSW 3.5 mph - N/A   Scattered Clouds
10:53 AM 71.1 °F 55.9 °F 59% 30.01 in 9.0 mi WSW 8.1 mph - N/A   Partly Cloudy
11:53 AM 70.0 °F 57.0 °F 63% 30.01 in 10.0 mi West 9.2 mph - N/A   Partly Cloudy
12:53 PM 71.1 °F 57.0 °F 61% 30.02 in 10.0 mi West 12.7 mph - N/A   Partly Cloudy
1:53 PM 71.1 °F 57.0 °F 61% 30.01 in 10.0 mi WSW 12.7 mph - N/A   Partly Cloudy
2:53 PM 71.1 °F 57.0 °F 61% 30.00 in 10.0 mi West 11.5 mph - N/A   Scattered Clouds
3:53 PM 70.0 °F 57.0 °F 63% 29.99 in 10.0 mi West 12.7 mph 18.4 mph N/A   Partly Cloudy
4:53 PM 68.0 °F 57.0 °F 68% 29.99 in 10.0 mi West 13.8 mph - N/A   Scattered Clouds
5:53 PM 66.9 °F 55.9 °F 68% 29.98 in 10.0 mi West 15.0 mph - N/A   Scattered Clouds
6:53 PM 64.9 °F 55.9 °F 73% 29.98 in 10.0 mi West 16.1 mph - N/A   Scattered Clouds
7:53 PM 64.0 °F 55.9 °F 75% 29.99 in 10.0 mi West 15.0 mph - N/A   Scattered Clouds
8:53 PM 64.0 °F 57.0 °F 78% 30.01 in 10.0 mi West 11.5 mph - N/A   Scattered Clouds
9:53 PM 64.0 °F 57.0 °F 78% 30.03 in 10.0 mi West 8.1 mph - N/A   Partly Cloudy
10:12 PM 64.4 °F 57.2 °F 77% 30.03 in 10.0 mi WSW 6.9 mph - N/A   Mostly Cloudy
10:53 PM 64.0 °F 57.9 °F 80% 30.03 in 10.0 mi WSW 6.9 mph - N/A   Mostly Cloudy
11:53 PM 63.0 °F 57.9 °F 84% 30.04 in 10.0 mi WSW 5.8 mph - N/A   Mostly Cloudy